Alexandria, Egypt

3:27 PM EET on October 20, 2017 (GMT +0200)
Alexandria

Weather History for HEAX - February, 2013

Change the Weather History Date:

Friday, February 15, 2013

  Actual Average Record
Temperature  
Mean Temperature 57 °F -  
Max Temperature 64 °F 65 °F 80 °F (2016)
Min Temperature 50 °F 50 °F 41 °F (2005)
Degree Days  
Heating Degree Days 8    
Growing Degree Days 7 (Base 50)    
Moisture  
Dew Point 45 °F    
Average Humidity 61    
Maximum Humidity 72    
Minimum Humidity 42    
Precipitation  
Precipitation 0.00 in 0.03 in - ()
Sea Level Pressure  
Sea Level Pressure 30.02 in    
Wind  
Wind Speed 11 mph ()    
Max Wind Speed 21 mph    
Max Gust Speed -    
Visibility 5.8 miles    
Events      
Averages and records for this station are not official NWS values.
T = Trace of Precipitation, MM = Missing Value Source: Averaged Metar Reports

Daily Weather History Graph

Daily Weather History Graph

Search for Another Location

Airport or City:

Trip Planner

Search our weather history database for the weather conditions in past years. The results will help you decide how hot, cold, wet, or windy it might be!

Date:

Astronomy

Feb. 15, 2013 Rise Set
Actual Time 6:41 AM EET 5:47 PM EET
Civil Twilight 6:16 AM EET 6:12 PM EET
Nautical Twilight 5:48 AM EET 6:40 PM EET
Astronomical Twilight 5:20 AM EET 7:09 PM EET
Moon 9:30 AM EET (2/15) 11:03 PM EET (2/15)
Length of Visible Light 11h 55m
Length of Day
11h 06m
Waxing Crescent, 27% of the Moon is Illuminated
Feb 15
Waxing Crescent
Feb 17
First Quarter
Feb 25
Full
Mar 4
Last Quarter
Mar 11
New

Hourly Weather History & Observations

Time (EET) Temp. Dew Point Humidity Pressure Visibility Wind Dir Wind Speed Gust Speed Precip Events Conditions
12:00 AM 59.0 °F 46.4 °F 63% 29.95 in 6.2 mi WNW 13.8 mph - N/A   Partly Cloudy
1:00 AM 59.0 °F 46.4 °F 63% 29.95 in 6.2 mi WNW 12.7 mph - N/A   Scattered Clouds
2:00 AM 59 °F 47 °F 55% 29.96 in 6 mi West 12.7 mph - -   Partly Cloudy
2:00 AM 59.0 °F 46.4 °F 63% 29.95 in 6.2 mi West 12.7 mph - N/A   Scattered Clouds
3:00 AM 57.2 °F 46.4 °F 67% 29.95 in 6.2 mi West 11.5 mph - N/A   Scattered Clouds
4:00 AM 57.2 °F 46.4 °F 67% 29.95 in 6.2 mi WNW 12.7 mph - N/A   Scattered Clouds
5:00 AM 55.4 °F 46.4 °F 72% 29.95 in - West 13.8 mph - N/A   Clear
6:00 AM 55.4 °F 46.4 °F 72% 29.95 in 6.2 mi WSW 12.7 mph - N/A   Scattered Clouds
7:00 AM 53.6 °F 42.8 °F 67% 29.95 in 6.2 mi South 8.1 mph - N/A   Partly Cloudy
8:00 AM 52 °F 42 °F 60% 30.00 in 6 mi SSW 4.6 mph - -   Scattered Clouds
8:00 AM 51.8 °F 42.8 °F 71% 29.98 in 6.2 mi SSW 4.6 mph - N/A   Partly Cloudy
9:00 AM 57.2 °F 44.6 °F 63% 30.01 in 6.2 mi SW 10.4 mph - N/A   Partly Cloudy
10:00 AM 60.8 °F 46.4 °F 59% 30.04 in - SW 15.0 mph - N/A   Clear
11:00 AM 62.6 °F 44.6 °F 52% 30.04 in - WSW 18.4 mph - N/A   Clear
12:00 PM 62.6 °F 44.6 °F 52% 30.04 in - WSW 19.6 mph - N/A   Clear
1:00 PM 62.6 °F 44.6 °F 52% 30.06 in - West 20.7 mph - N/A   Clear
2:00 PM 62.6 °F 44.6 °F 52% 30.06 in - WNW 10.4 mph - N/A   Clear
4:00 PM 62.6 °F 41.0 °F 45% 30.04 in 3.7 mi West 19.6 mph - N/A   Unknown
5:00 PM 60.8 °F 37.4 °F 42% 30.06 in 3.7 mi West 19.6 mph - N/A   Unknown
6:00 PM 59.0 °F 46.4 °F 63% 30.06 in - West 10.4 mph - N/A   Clear
7:00 PM 59.0 °F 46.4 °F 63% 30.09 in - West 9.2 mph - N/A   Clear
8:00 PM 59 °F 47 °F 54% 30.10 in 6 mi West 10.4 mph - -  
8:00 PM 59.0 °F 46.4 °F 63% 30.09 in - West 10.4 mph - N/A   Clear
9:00 PM 59.0 °F 48.2 °F 67% 30.12 in - West 10.4 mph - N/A   Clear
10:00 PM 59.0 °F 48.2 °F 67% 30.12 in - West 10.4 mph - N/A   Clear
11:00 PM 59.0 °F 48.2 °F 67% 30.12 in - West 12.7 mph - N/A   Clear